| time (UTC) | temp F | wind direction | speed MPH | gust MPH | rain 1hr in | rain 24hr in | rain mn in | humidity % | barometer mb |
| 20260506033436 | 50 | 225 | 0.0 | 0.0 | 0.00 | 0.00 | 0.00 | 82 | 1007.4 |
| 20260506032930 | 51 | 225 | 0.0 | 0.0 | 0.00 | 0.00 | 0.00 | 82 | 1007.5 |
| 20260506032424 | 51 | 225 | 0.0 | 0.0 | 0.00 | 0.00 | 0.00 | 82 | 1007.4 |
| 20260506031918 | 51 | 225 | 0.0 | 0.0 | 0.00 | 0.00 | 0.00 | 82 | 1007.4 |
| 20260506031412 | 51 | 225 | 0.0 | 0.0 | 0.00 | 0.00 | 0.00 | 82 | 1007.5 |
| 20260506030400 | 51 | 225 | 0.0 | 0.0 | 0.00 | 0.00 | 0.00 | 82 | 1007.3 |
| 20260506025855 | 51 | 225 | 0.0 | 0.0 | 0.00 | 0.00 | 0.00 | 82 | 1007.3 |
| 20260506025349 | 51 | 312 | 0.0 | 0.0 | 0.00 | 0.00 | 0.00 | 82 | 1007.2 |
| 20260506024337 | 51 | 269 | 0.0 | 0.0 | 0.00 | 0.00 | 0.00 | 82 | 1007.3 |
| 20260506023831 | 52 | 225 | 0.0 | 0.0 | 0.00 | 0.00 | 0.00 | 82 | 1007.5 |
| 20260506023325 | 52 | 225 | 0.0 | 0.0 | 0.00 | 0.00 | 0.00 | 82 | 1007.5 |
| 20260506022819 | 52 | 247 | 0.0 | 0.0 | 0.00 | 0.00 | 0.00 | 82 | 1007.5 |
| 20260506021807 | 52 | 9 | 0.0 | 0.0 | 0.00 | 0.00 | 0.00 | 82 | 1007.6 |
| 20260506021301 | 52 | 109 | 0.0 | 0.0 | 0.00 | 0.00 | 0.00 | 81 | 1007.6 |
| 20260506020755 | 52 | 258 | 0.0 | 0.0 | 0.00 | 0.00 | 0.00 | 80 | 1007.7 |
| 20260506020250 | 53 | 270 | 0.0 | 0.0 | 0.00 | 0.00 | 0.00 | 80 | 1007.7 |
| 20260506015238 | 53 | 270 | 0.0 | 0.0 | 0.00 | 0.00 | 0.00 | 80 | 1007.6 |
| 20260506013720 | 54 | 306 | 0.0 | 0.0 | 0.00 | 0.00 | 0.00 | 80 | 1007.5 |
| 20260506013214 | 54 | 319 | 0.0 | 0.0 | 0.00 | 0.00 | 0.00 | 80 | 1007.5 |
| 20260506012708 | 54 | 304 | 0.0 | 0.0 | 0.00 | 0.00 | 0.00 | 80 | 1007.4 |
| 20260506012202 | 54 | 0 | 0.0 | 0.0 | 0.00 | 0.00 | 0.00 | 80 | 1007.4 |
| 20260506011656 | 54 | 342 | 0.0 | 0.0 | 0.00 | 0.00 | 0.00 | 80 | 1007.5 |
| 20260506011150 | 55 | 225 | 0.0 | 0.0 | 0.00 | 0.00 | 0.00 | 80 | 1007.5 |
| 20260506010644 | 55 | 225 | 0.0 | 0.0 | 0.00 | 0.00 | 0.00 | 80 | 1007.5 |
| 20260506010138 | 55 | 290 | 0.0 | 0.0 | 0.00 | 0.00 | 0.00 | 80 | 1007.4 |
| 20260506005632 | 55 | 270 | 0.0 | 0.0 | 0.00 | 0.00 | 0.00 | 80 | 1007.4 |
| 20260506003608 | 56 | 315 | 0.0 | 0.0 | 0.00 | 0.00 | 0.00 | 80 | 1007.3 |
| 20260506003102 | 56 | 315 | 0.0 | 0.0 | 0.00 | 0.00 | 0.00 | 80 | 1007.3 |
| 20260506002049 | 57 | 225 | 0.0 | 0.0 | 0.00 | 0.00 | 0.00 | 80 | 1007.4 |
| 20260506001544 | 57 | 225 | 0.0 | 0.0 | 0.00 | 0.00 | 0.00 | 80 | 1007.4 |
| 20260506000531 | 57 | 211 | 0.0 | 0.0 | 0.00 | 0.00 | 0.00 | 81 | 1007.3 |
| 20260506000025 | 57 | 229 | 0.0 | 0.0 | 0.00 | 0.00 | 0.00 | 81 | 1007.4 |
| 20260505235519 | 57 | 242 | 0.0 | 0.0 | 0.00 | 0.00 | 0.00 | 81 | 1007.3 |
| 20260505235012 | 58 | 280 | 0.0 | 0.0 | 0.00 | 0.00 | 0.00 | 82 | 1007.2 |
| 20260505234506 | 58 | 271 | 0.0 | 0.0 | 0.00 | 0.00 | 0.00 | 82 | 1007.2 |
| 20260505233454 | 58 | 221 | 0.0 | 0.0 | 0.00 | 0.00 | 0.00 | 81 | 1007.2 |
| 20260505232948 | 58 | 202 | 0.0 | 0.0 | 0.00 | 0.00 | 0.00 | 81 | 1007.3 |
| 20260505231936 | 58 | 350 | 0.0 | 0.0 | 0.00 | 0.00 | 0.00 | 81 | 1007.3 |
| 20260505231429 | 58 | 315 | 0.0 | 0.0 | 0.00 | 0.00 | 0.00 | 81 | 1007.3 |
| 20260505230417 | 58 | 315 | 0.0 | 0.0 | 0.00 | 0.00 | 0.00 | 81 | 1007.5 |
| 20260505225911 | 59 | 315 | 0.0 | 0.0 | 0.00 | 0.00 | 0.00 | 81 | 1007.5 |
| 20260505225405 | 59 | 292 | 0.0 | 0.0 | 0.00 | 0.00 | 0.00 | 82 | 1007.5 |
| 20260505224858 | 58 | 302 | 0.0 | 0.0 | 0.00 | 0.00 | 0.00 | 82 | 1007.5 |
| 20260505224352 | 58 | 294 | 0.0 | 0.0 | 0.00 | 0.00 | 0.00 | 83 | 1007.6 |
| 20260505223846 | 58 | 306 | 0.0 | 0.0 | 0.00 | 0.00 | 0.00 | 83 | 1007.7 |
| 20260505223340 | 58 | 285 | 0.0 | 0.0 | 0.00 | 0.00 | 0.00 | 84 | 1007.8 |
| 20260505222834 | 59 | 42 | 0.0 | 0.0 | 0.00 | 0.00 | 0.00 | 83 | 1007.9 |
| 20260505222328 | 59 | 66 | 0.0 | 1.0 | 0.00 | 0.00 | 0.00 | 82 | 1007.9 |
| 20260505221315 | 59 | 339 | 0.0 | 0.0 | 0.00 | 0.00 | 0.00 | 81 | 1007.7 |
| 20260505220809 | 59 | 297 | 0.0 | 0.0 | 0.00 | 0.00 | 0.00 | 82 | 1007.7 |
| 20260505220303 | 59 | 81 | 0.0 | 0.0 | 0.00 | 0.00 | 0.00 | 82 | 1007.7 |
| 20260505215757 | 59 | 119 | 0.0 | 0.0 | 0.00 | 0.00 | 0.00 | 81 | 1007.5 |
| 20260505214744 | 59 | 129 | 0.0 | 0.0 | 0.00 | 0.00 | 0.00 | 81 | 1007.4 |
| 20260505213732 | 59 | 14 | 0.0 | 2.0 | 0.00 | 0.00 | 0.00 | 80 | 1007.3 |
| 20260505212720 | 60 | 4 | 0.0 | 0.0 | 0.00 | 0.00 | 0.00 | 79 | 1007.2 |
| 20260505211707 | 60 | 324 | 1.0 | 2.0 | 0.00 | 0.00 | 0.00 | 79 | 1007.2 |
| 20260505205643 | 61 | 291 | 0.0 | 1.0 | 0.00 | 0.00 | 0.00 | 75 | 1007.1 |
| 20260505205136 | 61 | 280 | 1.0 | 2.0 | 0.00 | 0.00 | 0.00 | 74 | 1007.0 |
| 20260505203111 | 62 | 277 | 2.0 | 4.0 | 0.00 | 0.00 | 0.00 | 70 | 1006.7 |
| 20260505201552 | 64 | 265 | 3.0 | 7.0 | 0.00 | 0.00 | 0.00 | 63 | 1006.3 |
| 20260505201045 | 64 | 252 | 5.0 | 8.0 | 0.00 | 0.00 | 0.00 | 60 | 1006.5 |
| 20260505200538 | 65 | 215 | 2.0 | 4.0 | 0.00 | 0.00 | 0.00 | 59 | 1006.5 |
| 20260505200032 | 65 | 232 | 3.0 | 7.0 | 0.00 | 0.00 | 0.00 | 56 | 1006.1 |
| 20260505195525 | 65 | 219 | 1.0 | 2.0 | 0.00 | 0.00 | 0.00 | 54 | 1005.9 |
| 20260505195019 | 66 | 333 | 1.0 | 3.0 | 0.00 | 0.00 | 0.00 | 54 | 1005.4 |
| 20260505194512 | 66 | 20 | 1.0 | 2.0 | 0.00 | 0.00 | 0.00 | 54 | 1005.0 |
| 20260505194006 | 66 | 5 | 0.0 | 2.0 | 0.00 | 0.00 | 0.00 | 54 | 1005.0 |
| 20260505193459 | 66 | 352 | 1.0 | 2.0 | 0.00 | 0.00 | 0.00 | 53 | 1005.0 |
| 20260505192953 | 66 | 300 | 1.0 | 2.0 | 0.00 | 0.00 | 0.00 | 54 | 1005.0 |
| 20260505192446 | 66 | 282 | 1.0 | 2.0 | 0.00 | 0.00 | 0.00 | 54 | 1005.0 |
| 20260505191940 | 66 | 275 | 1.0 | 3.0 | 0.00 | 0.00 | 0.00 | 54 | 1005.0 |
| 20260505190420 | 66 | 235 | 2.0 | 6.0 | 0.00 | 0.00 | 0.00 | 54 | 1005.3 |
| 20260505185914 | 67 | 278 | 1.0 | 2.0 | 0.00 | 0.00 | 0.00 | 52 | 1004.8 |
| 20260505185407 | 67 | 346 | 0.0 | 0.0 | 0.00 | 0.00 | 0.00 | 52 | 1004.5 |
| 20260505184900 | 67 | 357 | 0.0 | 0.0 | 0.00 | 0.00 | 0.00 | 52 | 1004.4 |
| 20260505184354 | 67 | 348 | 0.0 | 2.0 | 0.00 | 0.00 | 0.00 | 51 | 1004.5 |
| 20260505183847 | 67 | 328 | 0.0 | 2.0 | 0.00 | 0.00 | 0.00 | 51 | 1004.5 |
| 20260505183341 | 67 | 315 | 0.0 | 0.0 | 0.00 | 0.00 | 0.00 | 51 | 1004.7 |
| 20260505182834 | 68 | 315 | 0.0 | 0.0 | 0.00 | 0.00 | 0.00 | 50 | 1004.7 |
| 20260505182327 | 68 | 315 | 0.0 | 0.0 | 0.00 | 0.00 | 0.00 | 50 | 1004.7 |
| 20260505181821 | 68 | 321 | 0.0 | 0.0 | 0.00 | 0.00 | 0.00 | 50 | 1004.7 |
| 20260505180301 | 69 | 348 | 0.0 | 2.0 | 0.00 | 0.00 | 0.00 | 50 | 1004.5 |
| 20260505175754 | 69 | 1 | 1.0 | 3.0 | 0.00 | 0.00 | 0.00 | 49 | 1004.6 |
| 20260505175247 | 70 | 353 | 0.0 | 1.0 | 0.00 | 0.00 | 0.00 | 49 | 1004.7 |
| 20260505174740 | 70 | 357 | 0.0 | 2.0 | 0.00 | 0.00 | 0.00 | 49 | 1004.9 |
| 20260505174234 | 70 | 356 | 1.0 | 2.0 | 0.00 | 0.00 | 0.00 | 48 | 1005.0 |
| 20260505172713 | 71 | 16 | 1.0 | 1.0 | 0.00 | 0.00 | 0.00 | 47 | 1005.0 |
| 20260505171153 | 72 | 360 | 1.0 | 3.0 | 0.00 | 0.00 | 0.00 | 46 | 1005.0 |
| 20260505170646 | 72 | 6 | 1.0 | 3.0 | 0.00 | 0.00 | 0.00 | 46 | 1005.0 |
| 20260505165632 | 73 | 27 | 1.0 | 2.0 | 0.00 | 0.00 | 0.00 | 45 | 1005.0 |
| 20260505165125 | 74 | 35 | 1.0 | 2.0 | 0.00 | 0.00 | 0.00 | 44 | 1005.1 |
| 20260505163604 | 74 | 57 | 2.0 | 3.0 | 0.00 | 0.00 | 0.00 | 43 | 1005.2 |
| 20260505163057 | 75 | 61 | 1.0 | 2.0 | 0.00 | 0.00 | 0.00 | 41 | 1005.3 |
| 20260505162043 | 76 | 49 | 1.0 | 3.0 | 0.00 | 0.00 | 0.00 | 39 | 1005.4 |
| 20260505161536 | 76 | 72 | 2.0 | 5.0 | 0.00 | 0.00 | 0.00 | 38 | 1005.4 |
| 20260505161029 | 77 | 69 | 2.0 | 4.0 | 0.00 | 0.00 | 0.00 | 35 | 1005.5 |
| 20260505160521 | 78 | 27 | 1.0 | 3.0 | 0.00 | 0.00 | 0.00 | 36 | 1005.3 |
| 20260505152930 | 81 | 5 | 1.0 | 2.0 | 0.00 | 0.00 | 0.00 | 34 | 1005.2 |
| 20260505152423 | 81 | 358 | 1.0 | 2.0 | 0.00 | 0.00 | 0.00 | 34 | 1005.3 |
| 20260505151915 | 80 | 11 | 1.0 | 3.0 | 0.00 | 0.00 | 0.00 | 34 | 1005.3 |
| 20260505151408 | 80 | 10 | 1.0 | 2.0 | 0.00 | 0.00 | 0.00 | 35 | 1005.3 |
| 20260505150353 | 81 | 39 | 1.0 | 3.0 | 0.00 | 0.00 | 0.00 | 34 | 1005.4 |
| 20260505124531 | 83 | 354 | 2.0 | 4.0 | 0.00 | 0.00 | 0.00 | 33 | 1006.6 |
| 20260505124024 | 83 | 68 | 2.0 | 4.0 | 0.00 | 0.00 | 0.00 | 32 | 1006.8 |
| 20260505123516 | 83 | 32 | 2.0 | 4.0 | 0.00 | 0.00 | 0.00 | 32 | 1006.9 |
| 20260505121954 | 83 | 46 | 2.0 | 4.0 | 0.00 | 0.00 | 0.00 | 33 | 1007.0 |
| 20260505120939 | 84 | 22 | 1.0 | 2.0 | 0.00 | 0.00 | 0.00 | 33 | 1007.0 |
| 20260505120431 | 84 | 30 | 2.0 | 3.0 | 0.00 | 0.00 | 0.00 | 33 | 1007.1 |
| 20260505115923 | 83 | 28 | 2.0 | 3.0 | 0.00 | 0.00 | 0.00 | 34 | 1007.2 |
| 20260505115416 | 83 | 32 | 2.0 | 3.0 | 0.00 | 0.00 | 0.00 | 34 | 1007.3 |
| 20260505114401 | 83 | 17 | 1.0 | 3.0 | 0.00 | 0.00 | 0.00 | 34 | 1007.3 |
| 20260505113853 | 84 | 60 | 2.0 | 4.0 | 0.00 | 0.00 | 0.00 | 32 | 1007.3 |
| 20260505112838 | 84 | 356 | 2.0 | 3.0 | 0.00 | 0.00 | 0.00 | 34 | 1007.5 |
| 20260505112330 | 84 | 66 | 1.0 | 3.0 | 0.00 | 0.00 | 0.00 | 34 | 1007.6 |
| 20260505111823 | 84 | 355 | 2.0 | 5.0 | 0.00 | 0.00 | 0.00 | 34 | 1007.6 |
| 20260505111315 | 84 | 35 | 2.0 | 3.0 | 0.00 | 0.00 | 0.00 | 35 | 1007.7 |
| 20260505110300 | 84 | 3 | 2.0 | 3.0 | 0.00 | 0.00 | 0.00 | 34 | 1007.7 |
| 20260505102200 | 82 | 31 | 2.0 | 3.0 | 0.00 | 0.00 | 0.00 | 36 | 1008.1 |
| 20260505101653 | 82 | 41 | 1.0 | 3.0 | 0.00 | 0.00 | 0.00 | 38 | 1008.1 |
| 20260505101145 | 82 | 40 | 1.0 | 2.0 | 0.00 | 0.00 | 0.00 | 36 | 1008.2 |
| 20260505100638 | 81 | 32 | 2.0 | 3.0 | 0.00 | 0.00 | 0.00 | 39 | 1008.2 |
| 20260505100131 | 81 | 62 | 2.0 | 5.0 | 0.00 | 0.00 | 0.00 | 39 | 1008.2 |
| 20260505095623 | 81 | 53 | 1.0 | 2.0 | 0.00 | 0.00 | 0.00 | 39 | 1008.2 |
| 20260505094608 | 80 | 88 | 2.0 | 5.0 | 0.00 | 0.00 | 0.00 | 40 | 1008.3 |
| 20260505094101 | 81 | 60 | 2.0 | 4.0 | 0.00 | 0.00 | 0.00 | 40 | 1008.4 |
| 20260505093554 | 81 | 20 | 2.0 | 4.0 | 0.00 | 0.00 | 0.00 | 40 | 1008.4 |
| 20260505093047 | 81 | 7 | 1.0 | 3.0 | 0.00 | 0.00 | 0.00 | 40 | 1008.5 |
| 20260505092539 | 81 | 63 | 2.0 | 3.0 | 0.00 | 0.00 | 0.00 | 40 | 1008.4 |
| 20260505092032 | 81 | 25 | 2.0 | 3.0 | 0.00 | 0.00 | 0.00 | 40 | 1008.5 |
| 20260505091524 | 80 | 9 | 2.0 | 3.0 | 0.00 | 0.00 | 0.00 | 41 | 1008.5 |
| 20260505091017 | 80 | 77 | 1.0 | 3.0 | 0.00 | 0.00 | 0.00 | 41 | 1008.6 |
| 20260505090509 | 81 | 26 | 1.0 | 4.0 | 0.00 | 0.00 | 0.00 | 42 | 1008.6 |
| 20260505090002 | 80 | 8 | 2.0 | 5.0 | 0.00 | 0.00 | 0.00 | 44 | 1008.7 |
| 20260505085455 | 79 | 7 | 1.0 | 2.0 | 0.00 | 0.00 | 0.00 | 45 | 1008.7 |
| 20260505084441 | 78 | 77 | 2.0 | 3.0 | 0.00 | 0.00 | 0.00 | 45 | 1008.9 |
| 20260505083933 | 78 | 37 | 1.0 | 3.0 | 0.00 | 0.00 | 0.00 | 47 | 1008.9 |
| 20260505082919 | 78 | 86 | 2.0 | 3.0 | 0.00 | 0.00 | 0.00 | 46 | 1008.9 |
| 20260505081904 | 78 | 344 | 1.0 | 3.0 | 0.00 | 0.00 | 0.00 | 47 | 1008.9 |
| 20260505075329 | 76 | 113 | 2.0 | 4.0 | 0.00 | 0.00 | 0.00 | 47 | 1008.9 |
| 20260505074822 | 77 | 90 | 1.0 | 3.0 | 0.00 | 0.00 | 0.00 | 47 | 1009.0 |
| 20260505074315 | 76 | 25 | 1.0 | 2.0 | 0.00 | 0.00 | 0.00 | 48 | 1009.0 |
| 20260505072754 | 74 | 63 | 1.0 | 3.0 | 0.00 | 0.00 | 0.00 | 50 | 1009.1 |
| 20260505072247 | 74 | 15 | 1.0 | 2.0 | 0.00 | 0.00 | 0.00 | 51 | 1009.1 |
| 20260505071233 | 72 | 84 | 2.0 | 3.0 | 0.00 | 0.00 | 0.00 | 53 | 1009.3 |
| 20260505070726 | 73 | 78 | 1.0 | 3.0 | 0.00 | 0.00 | 0.00 | 54 | 1009.3 |
| 20260505065712 | 73 | 24 | 1.0 | 2.0 | 0.00 | 0.00 | 0.00 | 58 | 1009.4 |
| 20260505065205 | 72 | 3 | 1.0 | 2.0 | 0.00 | 0.00 | 0.00 | 58 | 1009.4 |
| 20260505064658 | 72 | 338 | 0.0 | 2.0 | 0.00 | 0.00 | 0.00 | 60 | 1009.4 |
| 20260505064152 | 71 | 345 | 1.0 | 1.0 | 0.00 | 0.00 | 0.00 | 62 | 1009.5 |
| 20260505063645 | 70 | 19 | 1.0 | 1.0 | 0.00 | 0.00 | 0.00 | 64 | 1009.5 |
| 20260505063138 | 69 | 46 | 1.0 | 2.0 | 0.00 | 0.00 | 0.00 | 65 | 1009.5 |
| 20260505062632 | 68 | 83 | 1.0 | 2.0 | 0.00 | 0.00 | 0.00 | 67 | 1009.4 |
| 20260505062125 | 68 | 87 | 1.0 | 2.0 | 0.00 | 0.00 | 0.00 | 70 | 1009.4 |
| 20260505061618 | 67 | 87 | 1.0 | 2.0 | 0.00 | 0.00 | 0.00 | 73 | 1009.5 |
| 20260505061112 | 65 | 86 | 1.0 | 2.0 | 0.00 | 0.00 | 0.00 | 75 | 1009.5 |
| 20260505060059 | 63 | 347 | 0.0 | 2.0 | 0.00 | 0.00 | 0.00 | 79 | 1009.5 |
| 20260505055046 | 62 | 264 | 0.0 | 1.0 | 0.00 | 0.00 | 0.00 | 80 | 1009.7 |
| 20260505054540 | 61 | 276 | 1.0 | 2.0 | 0.00 | 0.00 | 0.00 | 82 | 1009.9 |
| 20260505053528 | 60 | 240 | 0.0 | 2.0 | 0.00 | 0.00 | 0.00 | 83 | 1009.9 |
| 20260505053021 | 60 | 244 | 0.0 | 0.0 | 0.00 | 0.00 | 0.00 | 85 | 1009.8 |
| 20260505052515 | 58 | 66 | 0.0 | 0.0 | 0.00 | 0.00 | 0.00 | 86 | 1009.7 |
| 20260505051503 | 57 | 256 | 0.0 | 0.0 | 0.00 | 0.00 | 0.00 | 85 | 1009.8 |
| 20260505040844 | 54 | 333 | 0.0 | 0.0 | 0.00 | 0.00 | 0.00 | 81 | 1009.9 |
| 20260505040338 | 54 | 336 | 0.0 | 0.0 | 0.00 | 0.00 | 0.00 | 81 | 1010.0 |
| 20260505035326 | 54 | 274 | 0.0 | 0.0 | 0.00 | 0.00 | 0.00 | 80 | 1010.0 |